Time,TemperatureF,DewpointF,PressureIn,WindDirection,WindDirectionDegrees,WindSpeedMPH,WindSpeedGustMPH,Humidity,HourlyPrecipIn,Conditions,Clouds,dailyrainin,SoftwareType,DateUTC
2013-05-30 00:03:00,74.3,72.0,23.99,East,86,1.0,-999.0,91,-99.99,,,0.00,weatherlink.com 1.10,2013-05-30 04:03:00,
2013-05-30 00:18:00,74.2,72.0,24.00,East,86,5.0,-999.0,91,-99.99,,,0.00,weatherlink.com 1.10,2013-05-30 04:18:00,
2013-05-30 00:33:00,74.4,71.0,23.99,ENE,74,3.0,-999.0,90,-99.99,,,0.00,weatherlink.com 1.10,2013-05-30 04:33:00,
2013-05-30 00:48:00,74.4,71.0,24.00,East,85,5.0,-999.0,90,-99.99,,,0.00,weatherlink.com 1.10,2013-05-30 04:48:00,
2013-05-30 01:03:00,74.3,71.0,23.99,ENE,68,5.0,-999.0,90,-99.99,,,0.00,weatherlink.com 1.10,2013-05-30 05:03:00,
2013-05-30 01:18:00,74.3,71.0,23.99,East,86,4.0,-999.0,90,-99.99,,,0.00,weatherlink.com 1.10,2013-05-30 05:18:00,
2013-05-30 01:34:00,74.2,71.0,23.98,East,80,0.0,-999.0,90,-99.99,,,0.00,weatherlink.com 1.10,2013-05-30 05:34:00,
2013-05-30 01:49:00,74.0,71.0,23.99,East,83,0.0,-999.0,90,-99.99,,,0.00,weatherlink.com 1.10,2013-05-30 05:49:00,
2013-05-30 02:04:00,73.8,71.0,23.99,East,83,0.0,-999.0,91,-99.99,,,0.00,weatherlink.com 1.10,2013-05-30 06:04:00,
2013-05-30 02:19:00,73.6,71.0,23.99,East,83,0.0,-999.0,91,-99.99,,,0.00,weatherlink.com 1.10,2013-05-30 06:19:00,
2013-05-30 02:34:00,73.6,71.0,23.98,East,83,0.0,-999.0,91,-99.99,,,0.00,weatherlink.com 1.10,2013-05-30 06:34:00,
2013-05-30 02:49:00,73.4,71.0,23.99,East,83,0.0,-999.0,92,-99.99,,,0.00,weatherlink.com 1.10,2013-05-30 06:49:00,
2013-05-30 03:04:00,73.1,71.0,23.98,East,83,0.0,-999.0,92,-99.99,,,0.00,weatherlink.com 1.10,2013-05-30 07:04:00,
2013-05-30 03:19:00,72.9,71.0,23.98,East,83,0.0,-999.0,92,-99.99,,,0.00,weatherlink.com 1.10,2013-05-30 07:19:00,
2013-05-30 03:34:00,72.5,70.0,23.99,East,83,0.0,-999.0,93,-99.99,,,0.00,weatherlink.com 1.10,2013-05-30 07:34:00,
2013-05-30 03:49:00,72.3,70.0,23.98,East,83,0.0,-999.0,93,-99.99,,,0.00,weatherlink.com 1.10,2013-05-30 07:49:00,
2013-05-30 04:04:00,72.0,70.0,23.99,East,83,0.0,-999.0,94,-99.99,,,0.00,weatherlink.com 1.10,2013-05-30 08:04:00,
2013-05-30 04:19:00,71.8,70.0,23.99,East,83,0.0,-999.0,94,-99.99,,,0.00,weatherlink.com 1.10,2013-05-30 08:19:00,
2013-05-30 04:34:00,71.5,70.0,24.00,East,83,0.0,-999.0,95,-99.99,,,0.00,weatherlink.com 1.10,2013-05-30 08:34:00,
2013-05-30 04:49:00,71.4,70.0,23.98,East,83,0.0,-999.0,95,-99.99,,,0.00,weatherlink.com 1.10,2013-05-30 08:49:00,
2013-05-30 05:04:00,71.1,70.0,24.00,East,83,0.0,-999.0,95,-99.99,,,0.00,weatherlink.com 1.10,2013-05-30 09:04:00,
2013-05-30 05:19:00,70.7,69.0,24.00,East,83,0.0,-999.0,95,-99.99,,,0.00,weatherlink.com 1.10,2013-05-30 09:19:00,
2013-05-30 05:34:00,71.0,70.0,24.00,East,83,0.0,-999.0,96,-99.99,,,0.00,weatherlink.com 1.10,2013-05-30 09:34:00,
2013-05-30 05:49:00,71.1,70.0,24.00,East,83,0.0,-999.0,96,-99.99,,,0.00,weatherlink.com 1.10,2013-05-30 09:49:00,
2013-05-30 06:04:00,71.3,70.0,24.00,East,83,0.0,-999.0,96,-99.99,,,0.00,weatherlink.com 1.10,2013-05-30 10:04:00,
2013-05-30 06:19:00,71.4,70.0,24.00,East,83,0.0,-999.0,96,-99.99,,,0.00,weatherlink.com 1.10,2013-05-30 10:19:00,
2013-05-30 06:34:00,71.2,70.0,24.00,East,83,0.0,-999.0,96,-99.99,,,0.00,weatherlink.com 1.10,2013-05-30 10:34:00,
2013-05-30 06:49:00,71.3,70.0,24.00,East,83,0.0,-999.0,97,-99.99,,,0.00,weatherlink.com 1.10,2013-05-30 10:49:00,
2013-05-30 07:04:00,71.7,71.0,23.99,East,83,0.0,-999.0,97,-99.99,,,0.00,weatherlink.com 1.10,2013-05-30 11:04:00,
2013-05-30 07:19:00,72.0,71.0,23.99,East,83,0.0,-999.0,97,-99.99,,,0.00,weatherlink.com 1.10,2013-05-30 11:19:00,
2013-05-30 07:34:00,72.2,71.0,23.99,East,83,3.0,-999.0,97,-99.99,,,0.00,weatherlink.com 1.10,2013-05-30 11:34:00,
2013-05-30 07:49:00,72.5,72.0,23.99,NE,50,0.0,-999.0,97,-99.99,,,0.00,weatherlink.com 1.10,2013-05-30 11:49:00,
2013-05-30 08:05:00,73.1,72.0,23.99,ENE,58,0.0,-999.0,97,-99.99,,,0.00,weatherlink.com 1.10,2013-05-30 12:05:00,
2013-05-30 08:19:00,73.9,73.0,23.99,ENE,71,0.0,-999.0,97,-99.99,,,0.00,weatherlink.com 1.10,2013-05-30 12:19:00,
2013-05-30 08:34:00,74.6,73.0,23.99,East,92,5.0,-999.0,96,-99.99,,,0.00,weatherlink.com 1.10,2013-05-30 12:34:00,
2013-05-30 08:49:00,75.8,74.0,23.99,East,87,5.0,-999.0,93,-99.99,,,0.00,weatherlink.com 1.10,2013-05-30 12:49:00,
2013-05-30 09:04:00,77.3,74.0,24.00,East,84,3.0,-999.0,89,-99.99,,,0.00,weatherlink.com 1.10,2013-05-30 13:04:00,
2013-05-30 09:19:00,78.5,74.0,24.00,ENE,63,7.0,-999.0,85,-99.99,,,0.00,weatherlink.com 1.10,2013-05-30 13:19:00,
2013-05-30 09:34:00,78.9,73.0,24.00,East,82,9.0,-999.0,83,-99.99,,,0.00,weatherlink.com 1.10,2013-05-30 13:34:00,
2013-05-30 09:49:00,79.6,74.0,23.99,East,92,0.0,-999.0,82,-99.99,,,0.00,weatherlink.com 1.10,2013-05-30 13:49:00,
2013-05-30 10:04:00,79.9,74.0,24.00,East,95,6.0,-999.0,81,-99.99,,,0.00,weatherlink.com 1.10,2013-05-30 14:04:00,
2013-05-30 10:20:00,81.3,74.0,24.01,East,98,10.0,-999.0,78,-99.99,,,0.00,weatherlink.com 1.10,2013-05-30 14:20:00,
2013-05-30 10:35:00,81.7,74.0,24.00,ENE,76,6.0,-999.0,78,-99.99,,,0.00,weatherlink.com 1.10,2013-05-30 14:35:00,
2013-05-30 10:50:00,82.3,74.0,23.99,East,89,10.0,-999.0,77,-99.99,,,0.00,weatherlink.com 1.10,2013-05-30 14:50:00,
2013-05-30 11:05:00,83.1,74.0,24.00,NNE,27,6.0,-999.0,74,-99.99,,,0.00,weatherlink.com 1.10,2013-05-30 15:05:00,
2013-05-30 11:20:00,82.1,74.0,23.98,ESE,112,7.0,-999.0,75,-99.99,,,0.00,weatherlink.com 1.10,2013-05-30 15:20:00,
2013-05-30 11:35:00,77.6,74.0,23.95,SE,128,2.0,-999.0,87,-99.99,,,0.00,weatherlink.com 1.10,2013-05-30 15:35:00,
2013-05-30 11:50:00,79.2,74.0,23.97,East,94,5.0,-999.0,84,-99.99,,,0.00,weatherlink.com 1.10,2013-05-30 15:50:00,
2013-05-30 12:05:00,78.0,72.0,23.96,SE,130,5.0,-999.0,82,-99.99,,,0.00,weatherlink.com 1.10,2013-05-30 16:05:00,
2013-05-30 12:20:00,76.2,73.0,23.96,ESE,111,5.0,-999.0,90,-99.99,,,0.01,weatherlink.com 1.10,2013-05-30 16:20:00,
2013-05-30 12:35:00,77.9,73.0,23.98,SE,130,7.0,-999.0,85,-99.99,,,0.01,weatherlink.com 1.10,2013-05-30 16:35:00,
2013-05-30 13:05:00,79.1,74.0,23.99,NE,51,3.0,-999.0,84,-99.99,,,0.01,weatherlink.com 1.10,2013-05-30 17:05:00,
2013-05-30 13:20:00,82.1,75.0,23.99,NE,56,8.0,-999.0,78,-99.99,,,0.01,weatherlink.com 1.10,2013-05-30 17:20:00,
2013-05-30 13:35:00,82.6,74.0,23.99,East,91,0.0,-999.0,75,-99.99,,,0.01,weatherlink.com 1.10,2013-05-30 17:35:00,
2013-05-30 13:50:00,82.7,74.0,23.99,East,91,11.0,-999.0,75,-99.99,,,0.01,weatherlink.com 1.10,2013-05-30 17:50:00,
2013-05-30 14:05:00,84.2,74.0,23.99,East,95,7.0,-999.0,71,-99.99,,,0.01,weatherlink.com 1.10,2013-05-30 18:05:00,
2013-05-30 14:20:00,81.6,72.0,23.99,East,101,11.0,-999.0,72,-99.99,,,0.01,weatherlink.com 1.10,2013-05-30 18:20:00,
2013-05-30 14:35:00,79.5,72.0,23.99,East,91,10.0,-999.0,78,-99.99,,,0.01,weatherlink.com 1.10,2013-05-30 18:35:00,
2013-05-30 14:50:00,78.0,73.0,23.99,East,99,6.0,-999.0,85,-99.99,,,0.01,weatherlink.com 1.10,2013-05-30 18:50:00,
2013-05-30 15:05:00,80.1,73.0,23.99,SE,126,1.0,-999.0,79,-99.99,,,0.01,weatherlink.com 1.10,2013-05-30 19:05:00,
2013-05-30 15:20:00,78.7,73.0,23.99,ENE,78,5.0,-999.0,82,-99.99,,,0.01,weatherlink.com 1.10,2013-05-30 19:20:00,
2013-05-30 15:35:00,79.2,72.0,23.99,East,79,4.0,-999.0,79,-99.99,,,0.01,weatherlink.com 1.10,2013-05-30 19:35:00,
2013-05-30 15:50:00,82.2,74.0,23.98,ESE,110,9.0,-999.0,75,-99.99,,,0.01,weatherlink.com 1.10,2013-05-30 19:50:00,
2013-05-30 16:05:00,83.5,74.0,23.98,ENE,72,6.0,-999.0,72,-99.99,,,0.01,weatherlink.com 1.10,2013-05-30 20:05:00,
2013-05-30 16:20:00,82.1,74.0,23.99,SE,124,4.0,-999.0,75,-99.99,,,0.01,weatherlink.com 1.10,2013-05-30 20:20:00,
2013-05-30 16:35:00,83.9,74.0,23.98,ENE,69,9.0,-999.0,71,-99.99,,,0.01,weatherlink.com 1.10,2013-05-30 20:35:00,
2013-05-30 16:50:00,83.7,73.0,23.98,East,89,14.0,-999.0,69,-99.99,,,0.01,weatherlink.com 1.10,2013-05-30 20:50:00,
2013-05-30 17:05:00,76.1,71.0,23.99,East,79,3.0,-999.0,85,-99.99,,,0.01,weatherlink.com 1.10,2013-05-30 21:05:00,
2013-05-30 17:20:00,78.3,74.0,23.99,ESE,116,1.0,-999.0,87,-99.99,,,0.01,weatherlink.com 1.10,2013-05-30 21:20:00,
2013-05-30 17:35:00,80.3,74.0,23.99,East,101,3.0,-999.0,82,-99.99,,,0.01,weatherlink.com 1.10,2013-05-30 21:35:00,
2013-05-30 17:50:00,80.3,74.0,23.99,ESE,107,0.0,-999.0,81,-99.99,,,0.01,weatherlink.com 1.10,2013-05-30 21:50:00,
2013-05-30 18:05:00,81.5,74.0,23.98,East,95,9.0,-999.0,78,-99.99,,,0.01,weatherlink.com 1.10,2013-05-30 22:05:00,
2013-05-30 18:20:00,80.0,73.0,23.99,East,88,3.0,-999.0,80,-99.99,,,0.01,weatherlink.com 1.10,2013-05-30 22:20:00,
2013-05-30 18:35:00,81.5,73.0,23.98,East,91,6.0,-999.0,76,-99.99,,,0.01,weatherlink.com 1.10,2013-05-30 22:35:00,
2013-05-30 18:50:00,80.8,73.0,23.99,ENE,77,4.0,-999.0,76,-99.99,,,0.01,weatherlink.com 1.10,2013-05-30 22:50:00,
2013-05-30 19:05:00,80.4,72.0,23.99,ESE,120,7.0,-999.0,76,-99.99,,,0.01,weatherlink.com 1.10,2013-05-30 23:05:00,
2013-05-30 19:20:00,80.1,72.0,23.99,East,81,6.0,-999.0,76,-99.99,,,0.01,weatherlink.com 1.10,2013-05-30 23:20:00,
2013-05-30 19:35:00,79.8,72.0,23.99,East,92,5.0,-999.0,78,-99.99,,,0.01,weatherlink.com 1.10,2013-05-30 23:35:00,
2013-05-30 19:50:00,79.1,72.0,23.99,SE,131,8.0,-999.0,80,-99.99,,,0.01,weatherlink.com 1.10,2013-05-30 23:50:00,
2013-05-30 20:05:00,75.3,71.0,23.99,ESE,103,0.0,-999.0,86,-99.99,,,0.01,weatherlink.com 1.10,2013-05-31 00:05:00,
2013-05-30 20:20:00,74.0,70.0,23.99,ESE,107,0.0,-999.0,88,-99.99,,,0.01,weatherlink.com 1.10,2013-05-31 00:20:00,
2013-05-30 20:35:00,73.3,70.0,23.95,ESE,107,0.0,-999.0,90,-99.99,,,0.01,weatherlink.com 1.10,2013-05-31 00:35:00,
2013-05-30 20:50:00,73.1,70.0,23.97,ESE,107,0.0,-999.0,91,-99.99,,,0.01,weatherlink.com 1.10,2013-05-31 00:50:00,
2013-05-30 21:05:00,72.8,70.0,24.01,ESE,107,0.0,-999.0,92,-99.99,,,0.01,weatherlink.com 1.10,2013-05-31 01:05:00,
2013-05-30 21:20:00,72.7,70.0,24.00,ESE,107,0.0,-999.0,92,-99.99,,,0.01,weatherlink.com 1.10,2013-05-31 01:20:00,
2013-05-30 21:35:00,72.8,70.0,24.01,ESE,106,0.0,-999.0,92,-99.99,,,0.01,weatherlink.com 1.10,2013-05-31 01:35:00,
2013-05-30 21:50:00,73.2,71.0,24.00,East,93,0.0,-999.0,92,-99.99,,,0.01,weatherlink.com 1.10,2013-05-31 01:50:00,
2013-05-30 22:05:00,73.4,71.0,23.99,East,94,0.0,-999.0,91,-99.99,,,0.01,weatherlink.com 1.10,2013-05-31 02:05:00,
2013-05-30 22:20:00,73.4,71.0,23.99,East,94,0.0,-999.0,91,-99.99,,,0.01,weatherlink.com 1.10,2013-05-31 02:20:00,
2013-05-30 22:35:00,73.5,71.0,23.99,East,89,3.0,-999.0,91,-99.99,,,0.01,weatherlink.com 1.10,2013-05-31 02:35:00,
2013-05-30 22:50:00,73.6,71.0,23.99,East,85,0.0,-999.0,90,-99.99,,,0.01,weatherlink.com 1.10,2013-05-31 02:50:00,
2013-05-30 23:05:00,73.5,71.0,23.99,East,83,0.0,-999.0,90,-99.99,,,0.01,weatherlink.com 1.10,2013-05-31 03:05:00,
2013-05-30 23:20:00,73.5,71.0,24.00,East,83,1.0,-999.0,91,-99.99,,,0.01,weatherlink.com 1.10,2013-05-31 03:20:00,
2013-05-30 23:35:00,73.4,71.0,24.00,East,83,0.0,-999.0,91,-99.99,,,0.01,weatherlink.com 1.10,2013-05-31 03:35:00,
2013-05-30 23:50:00,73.3,70.0,24.01,East,82,0.0,-999.0,90,-99.99,,,0.01,weatherlink.com 1.10,2013-05-31 03:50:00,